Location: Northcutt
(34.7304°N, 84.4305°W)
Time: 01:57:05
(UTC+00:00)

SR - Pass Details

Date: 09 October 2022
Orbit: 577 x 874 km, 66.7° (Epoch: 06 December)

Event Time Altitude Azimuth Distance (km) Brightness Sun altitude
Exits shadow 08:39:11 - 358° (N) 2,857 ? -37.1°
Reaches altitude 10° 08:41:30 10° 16° (NNE) 2,289 ? -36.7°
Maximum altitude 08:44:07 14° 46° (NE) 1,984 ? -36.2°
Drops below altitude 10° 08:46:38 10° 77° (ENE) 2,181 ? -35.7°
Sets 08:50:03 0° 103° (ESE) 3,024 ? -35.0°
